This is the latest recevied weather packets stored in our database for station/object DO7ZT-13. If no packets are shown the sender has not sent any weather packets the latest 10 day(s).
| Time | Temp. | Humidity | Pressure | Rain* | Wind** | Luminosity | Snow |
|---|---|---|---|---|---|---|---|
| 1778115303 | 10° C | 99% | 1008.1 hPa | 4.83 mm | 0.45 m/s, 318° | - | - |
| 1778115016 | 10° C | 99% | 1008.1 hPa | 4.57 mm | 0.89 m/s, 306° | - | - |
| 1778114703 | 10° C | 99% | 1007.6 hPa | 4.06 mm | 0.45 m/s, 306° | - | - |
| 1778114415 | 10° C | 99% | 1007.6 hPa | 3.3 mm | 0.45 m/s, 312° | - | - |
| 1778114127 | 10° C | 99% | 1007.6 hPa | 3.3 mm | 0.45 m/s, 336° | - | - |
| 1778113815 | 10° C | 99% | 1007.4 hPa | 2.79 mm | 0.45 m/s, 6° | - | - |
| 1778113503 | 10° C | 99% | 1007.4 hPa | 2.54 mm | 0.45 m/s, 312° | - | - |
| 1778113215 | 10° C | 99% | 1007.4 hPa | 2.03 mm | 0.89 m/s, 354° | - | - |
| 1778112903 | 10° C | 99% | 1007.6 hPa | 2.03 mm | 0.45 m/s, 342° | - | - |
| 1778112616 | 10° C | 99% | 1007.6 hPa | 1.78 mm | 0 m/s | - | - |
| 1778112303 | 10° C | 99% | 1007.6 hPa | 1.27 mm | 0.45 m/s, 324° | - | - |
| 1778111703 | 10° C | 99% | 1007.4 hPa | 1.02 mm | 0.89 m/s, 6° | - | - |
| 1778111414 | 10° C | 99% | 1007.4 hPa | 0.51 mm | 1.34 m/s, 354° | - | - |
| 1778111127 | 10° C | 99% | 1007.3 hPa | 0.51 mm | 0.45 m/s, 6° | - | - |
| 1778110815 | 10° C | 99% | 1007.3 hPa | 1.02 mm | 0.45 m/s, 12° | - | - |
| 1778110502 | 10° C | 99% | 1007.3 hPa | 0.51 mm | 0.45 m/s, 336° | - | - |
| 1778110215 | 10° C | 99% | 1007.5 hPa | 0.51 mm | 0.45 m/s, 24° | - | - |
| 1778109928 | 10° C | 99% | 1007.5 hPa | 0.51 mm | 0.89 m/s, 354° | - | - |
| 1778109615 | 10° C | 99% | 1007.5 hPa | 0.51 mm | 1.34 m/s, 348° | - | - |
| 1778109339 | 10° C | 99% | 1007.5 hPa | 0.51 mm | 0.45 m/s, 336° | - | - |
| 1778109027 | 10° C | 99% | 1007.5 hPa | 0.51 mm | 0.89 m/s, 24° | - | - |
| 1778108715 | 10° C | 99% | 1007.5 hPa | 0.51 mm | 0.89 m/s, 330° | - | - |
| 1778108427 | 10° C | 99% | 1007.5 hPa | 0.51 mm | 0.45 m/s, 336° | - | - |
| 1778108114 | 11.11° C | 99% | 1007.5 hPa | 1.02 mm | 0.89 m/s, 348° | - | - |
| 1778107827 | 11.11° C | 99% | 1007.5 hPa | 1.02 mm | 0.45 m/s, 324° | - | - |
* Rain latest hour (hover to see other rain measurements)
** Current wind speed in m/s (hover to see current wind gust speed)